Regional Weather Roundup
Issued by NWS

Home | Current Version | Previous Version | Graphics & Text | Print | Product List | Glossary On
Versions: 1 2 3 4 5 6 7 8 9 10 11 12 13 14 15 16 17 18 19 20 21 22 23 24 25 26 27 28 29 30 31 32 33 34 35 36 37 38 39 40 41 42 43 44 45 46 47 48 49 50
000
ASUS43 KMPX 291301
RWRMN
WEATHER ROUNDUP FOR MINNESOTA
NATIONAL WEATHER SERVICE TWIN CITIES/CHANHASSEN MN
800 AM CDT TUE JUL 29 2014


NOTE: "FAIR" INDICATES FEW OR NO CLOUDS BELOW 12,000 FEET WITH NO
SIGNIFICANT WEATHER AND/OR OBSTRUCTIONS TO VISIBILITY. N/A MEANS
CURRENT SKY AND/OR WEATHER CONDITIONS ARE NOT AVAILABLE.

MNZ060>063-068>070-291400-
   Twin Cities Metro

CITY           SKY/WX    TMP DP  RH WIND       PRES   REMARKS
TWIN CITIES    MOSUNNY   65  56  72 NW6       30.14R
ST PAUL        SUNNY     63  56  78 NW6       30.14R
CRYSTAL        SUNNY     65  55  70 NW8       30.13R
BLAINE         SUNNY     63  57  82 W3        30.13S
LAKEVILLE      SUNNY     63  57  82 W3        30.14S
EDEN PRAIRIE   SUNNY     66  57  72 NW5       30.13S
SOUTH ST PAUL  SUNNY     65  56  73 NW6       30.13S
LAKE ELMO      FAIR      63  59  88 NW6       30.14R
$$
MNZ001>005-007-008-013>017-022>024-027-028-291400-
   Northwest Minnesota

CITY           SKY/WX    TMP DP  RH WIND       PRES   REMARKS
BEMIDJI        SUNNY     59  55  84 NW7       30.16S
HALLOCK        SUNNY     57  55  94 CALM      30.17R
ROSEAU         SUNNY     59  54  82 W6        30.16R
WARROAD        SUNNY     57  54  88 W6        30.15S
THIEF RVR FALL SUNNY     61  55  82 NW6       30.17S
CROOKSTON      SUNNY     57  55  94 CALM      30.18S
FOSSTON        SUNNY     55  54  94 CALM      30.18S
DETROIT LAKES  SUNNY     59  54  82 NW6       30.20S
MOORHEAD       SUNNY     59  57  94 CALM      30.20R
PARK RAPIDS    SUNNY     57  55  93 NW6       30.17R
$$
MNZ006-009>011-018-025>026-291400-
   North Central Minnesota

CITY           SKY/WX    TMP DP  RH WIND       PRES   REMARKS
BAUDETTE       SUNNY     61  56  83 NW6       30.14R
FLAG ISLAND    SUNNY     63  55  77 NW10      30.11S
INTL FALLS     PTSUNNY   60  57  89 W6        30.09S
WASKISH        SUNNY     63  57  82 NW5       30.14S
BIG FORK       MOSUNNY   59  55  88 W1        30.13S
LONGVILLE      SUNNY     63  61  94 W7        30.14S
GRAND RAPIDS   SUNNY     61  55  82 NW6       30.13R
CRANE LAKE     MOSUNNY   57  55  94 CALM      30.09S
ORR            PTSUNNY   61  57  88 NW5       30.08S
COOK           MOSUNNY   59  57  94 W6        30.10S
$$
MNZ012-019>021-037-291400-
   Northeast Minnesota

CITY           SKY/WX    TMP DP  RH WIND       PRES   REMARKS
DULUTH         MOSUNNY   62  54  74 NW8       30.08R
ELY            SUNNY     61  55  82 W5        30.07S
HIBBING        PTSUNNY   63  57  81 NW9       30.10S
EVELETH        MOSUNNY   63  55  77 NW12      30.10R
DULUTH HARBOR  MOSUNNY   64  55  72 W7        30.08R
TWO HARBORS    MOSUNNY   61  52  72 NW5       30.04S
SILVER BAY     MOSUNNY   61  55  82 NW5       30.03S
GRAND MARAIS     N/A     65  53  65 VRB7      30.01R
G MARAIS ARPRT MOSUNNY   57  50  77 W7        30.05S
$$
MNZ029>031-032-039>041-046>048-054>057-064-291400-
   West Central Minnesota

CITY           SKY/WX    TMP DP  RH WIND       PRES   REMARKS
FERGUS FALLS   SUNNY     61  54  77 CALM      30.20R
WHEATON        SUNNY     57  54  88 NW7       30.22R
MORRIS         SUNNY     57  55  94 NW5       30.19R
ALEXANDRIA     SUNNY     63  55  75 NW7       30.20R
ELBOW LAKE     FAIR      56  55  96 NW3       30.19S
WADENA         SUNNY     57  55  94 NW5       30.17S
GLENWOOD       SUNNY     61  57  88 NW6       30.19S
APPLETON       SUNNY     57  55  94 CALM      30.19S
BENSON         SUNNY     57  55  94 N6        30.19S
ORTONVILLE     SUNNY     61  54  77 NW6       30.20R
MADISON        SUNNY     59  55  88 W3        30.20R
WILLMAR        FAIR      59  54  82 NW5       30.20R
$$
MNZ033>034-036-042>043-049>051-058-059-291400-
   Central Minnesota

CITY           SKY/WX    TMP DP  RH WIND       PRES   REMARKS
ST CLOUD       SUNNY     63  55  75 NW6       30.15S
SAUK CENTRE    FAIR      59  56  91 W5        30.18S
PAYNESVILLE    SUNNY     55  55  99 SW3       30.18S FOG
AITKIN         SUNNY     63  55  77 CALM      30.13R
PINE RIVER     SUNNY     61  55  82 NW3       30.18S
BRAINERD       SUNNY     61  55  81 NW7       30.15S
STAPLES        MOSUNNY   57  55  94 NW3       30.17S
LONG PRAIRIE   FAIR      59  54  82 W7        30.18S
LITTLE FALLS   SUNNY     57  54  88 NW3       30.16S
LITCHFIELD     SUNNY     63  57  82 NW6       30.18R
BUFFALO        SUNNY     64  53  69 NW7       30.16S
MAPLE LAKE     SUNNY     64  57  78 NW6       30.16S
$$
MNZ037-044-045-052-053-291400-
   East Central Minnesota

CITY           SKY/WX    TMP DP  RH WIND       PRES   REMARKS
PRINCETON        N/A     63  57  82 W6        30.14S
MORA           SUNNY     59  55  88 CALM      30.14S
CAMBRIDGE      SUNNY     63  54  72 W5        30.11S
RUSH CITY      SUNNY     60  57  91 CALM      30.13R
MOOSE LAKE     SUNNY     59  55  88 NW5       30.09S
HINCKLEY       FAIR      61  57  88 NW5       30.11S
CLOQUET        MOSUNNY   57  55  94 W7        30.10S
MCGREGOR       SUNNY     59  55  88 NW6       30.14R
$$
MNZ071>073-080-081-089-090-097-098-291400-
   Southwest Minnesota

CITY           SKY/WX    TMP DP  RH WIND       PRES   REMARKS
MONTEVIDEO     SUNNY     59  57  94 NW5       30.20S
GRANITE FALLS  SUNNY     55  53  94 W5        30.21S
CANBY          PTSUNNY   58  54  84 W5        30.22R
MARSHALL       SUNNY     57  52  82 NW6       30.20R
REDWOOD FALLS  SUNNY     59  54  83 NW6       30.19R
OLIVIA         SUNNY     57  54  88 NW3       30.18R
PIPESTONE      SUNNY     57  52  82 N3        30.22S
WINDOM         SUNNY     59  55  88 NW5       30.20S
WORTHINGTON    SUNNY     57  54  88 NW6       30.22S
JACKSON        SUNNY     59  52  77 NW6       30.20S
TRACY          SUNNY     59  55  84 NW5       30.21S
SLAYTON        SUNNY     57  54  89 CALM      30.22S
$$
MNZ065>067-074>077-082>085-091>093-291400-
   South Central Minnesota

CITY           SKY/WX    TMP DP  RH WIND       PRES   REMARKS
MANKATO        SUNNY     57  52  82 W7        30.17R
NEW ULM        SUNNY     57  57 100 W3        30.17S
ST JAMES       SUNNY     61  54  77 NW7       30.19S HAZE
FAIRMONT       SUNNY     61  52  72 NW8       30.18S
GLENCOE        SUNNY     62  55  77 NW5       30.16R
FARIBAULT      SUNNY     64  55  72 CALM      30.15S
OWATONNA       SUNNY     59  55  88 CALM      30.16R
WASECA         SUNNY     55  52  88 W3        30.18R
ALBERT LEA     SUNNY     59  55  88 CALM      30.16S
$$
MNZ078>079-086>088-094>096-291400-
   Southeast Minnesota

CITY           SKY/WX    TMP DP  RH WIND       PRES   REMARKS
ROCHESTER      SUNNY     61  56  83 NW6       30.15S
RED WING       SUNNY     61  59  94 CALM      30.12R
STANTON        SUNNY     60  56  87 CALM      30.13S
DODGE CENTER   SUNNY     63  57  82 NW7       30.15S
WINONA         SUNNY     61  55  82 NW6       30.12R
AUSTIN         SUNNY     59  55  88 NW7       30.14S
PRESTON        SUNNY     59  59  98 NW7       30.14S
$$
ABBREVIATIONS USED IN REMARKS
   TC - TEMPERATURES IN CELSIUS
  WCI - WIND CHILL INDEX
   HX - HEAT INDEX
  VSB - VISIBILITY
$$



USA.gov is the U.S. government's official web portal to all federal, state and local government web resources and services.